Showing default

THURAYA 4, 62483

Orbit data source: Space-Track

THURAYA 4, 62483 is an Emirian payload satellite in GEO that was launched on Sat, 04 Jan 2025 UTC via an FALCON 9 launch vehicle from the Air Force Eastern Test Range (AFETR). Payload-class satellites include a variety of spacecraft equipped with specific instruments for various scientific and technological missions. These include communications satellites like Starlink; space stations such as the ISS; scientific satellites like the Hubble; Earth observation satellites from companies like Planet Labs, Umbra, and HawkEye 360; GPS; miniature CubeSats for education and research; and military/defense satellites.

Not visible in the next 10 days
Identifier
62483, 2025-001A
Orbit
GEO
Country
Flag of AEAE / UAE
Related business
None
Manufacturer
ADST/ADSUK
Mission
Operational Commercial Communications
Bus & Motor
EUROSTAR NEO, PPS-5000
Mass
5,000 kg wet, ~5,000 kg dry
Launch date (UTC)
2025-01-04 (1 year ago)
Launch vehicle
FALCON 9
Launch site
Air Force Eastern Test Range (AFETR)
Object type
Payload
Rocket body
Debris
Shape & HBR
Box + 2 Pan, 22.5 m
Radar Cross Section
58.239 m², Large (>1 m²)

Expand to show TLE details & history
Last TLE update: 11 hours ago

TLE from 11 hours ago
0 THURAYA 4
1 62483U 25001A   26126.55626918  .00000147  00000-0  00000-0 0  9992
2 62483   0.0262  87.3349 0000191 358.9857  22.6989  1.00274495  3769
Epoch: 2026-05-06T13:21Z
TLE epoch observation values (Epoch: 2026-05-06T13:21:01.657Z)
Latitude
-0.00049°
Longitude
44.3416°
Altitude
35,784.583 km
Speed
3.075 km/s
True Right ascension
07h 16m 03s
True Declination
0° 00' 02"
Sunlit
Object was in daylight at epoch
Visualization orbit readout
Latitude
Unknown
Longitude
Unknown
Altitude
Unknown
Speed
Unknown
Apparent Right ascension
Unknown
Apparent Declination
Unknown
Sunlit
N/A
Visualization observer readout
Local Sidereal Time
08:31:45
Azimuth
Unknown
Elevation
Unknown
Doppler factor
Unknown
Orbital elements
Apogee altitude
35,787.711 km
Perigee altitude
35,786.1 km
Semi-major axis
42,165.043 km
Eccentricity
0.00002
Inclination
0.0262°
RAAN
87.3349°
Arg. of periapsis
358.9857°
True anomaly
22.69974°
Mean anomaly
22.6989°
Eccentric anomaly
22.69932°
Mean motion
0.25068 °/min
Orbital period
1,436.11 mins
BSTAR
0
Loading maneuver chart data...
Computing Atmospheric mass density...
Loading historical data...
Loading historical data...
Loading historical data...
Loading historical data...
Loading historical data...
Loading historical data...
Loading historical data...
Other satellites on launch #1 in the year 2025 (2025-01-04 UTC)

Documentation

Showing up to 5 results
|